Regional Weather Roundup
Issued by NWS Wakefield, VA

Home | Current Version | Previous Version | Text Only | Print | Product List | Glossary Off
Versions: 1 2 3 4 5 6 7 8 9 10 11 12 13 14 15 16 17 18 19 20 21 22 23 24 25 26 27 28 29 30 31 32 33 34 35 36 37 38 39 40 41 42 43 44 45 46 47 48 49 50

626
ASUS41 KAKQ 230314
RWRAKQ

REGIONAL WEATHER ROUNDUP
NATIONAL WEATHER SERVICE WAKEFIELD VA
1000 PM EST WED FEB 22 2017

Note: "fair" indicates few or no clouds below 12,000 feet with no
significant weather and/or obstructions to visibility. * = Denotes
station may not report precipitation (e.g., rain,snow,etc.),
thunder or fog.

VAZ042-051-052>054-056-230400-
NORTHERN VIRGINIA

CITY           SKY/WX    TMP DP  RH WIND       PRES   REMARKS
WASH NATIONAL  MOCLDY    53  50  89 S8        29.91F
DULLES         CLOUDY    53  48  83 S5        29.90S
FORT BELVOIR   MOCLDY    49  45  86 CALM      29.91S
QUANTICO       CLOUDY    52  51  97 SW6       29.92F
FREDERICKSBRG* MOCLDY    56  55  96 S5        29.91S
STAFFORD*      CLOUDY    54  53  98 CALM      29.95S
WARRENTON      MOCLDY    55  50  83 S3        29.90S
CULPEPER*      CLOUDY    56  54  93 S5        29.91F
MANASSAS*      CLOUDY    54  51  90 S5        29.91S
LEESBURG*      PTCLDY    54  50  87 MISG      29.91S
WINCHESTER     CLOUDY    52  46  82 S3        29.88S
FRONT ROYAL*   CLOUDY    54  50  87 CALM      29.88S
LURAY*         CLOUDY    55  52  88 SW6       29.89S
$$

VAZ048-049-060>072-079>083-230400-
CENTRAL AND SOUTH CENTRAL VIRGINIA

CITY           SKY/WX    TMP DP  RH WIND       PRES   REMARKS
RICHMOND       CLOUDY    54  53  97 S7        29.94F FOG
CHESTERFIELD*  CLOUDY    54  39  58 S5        29.96F
PETERSBURG*    CLOUDY    52  51  97 CALM      29.96F
HANOVER        CLOUDY    56  51  84 S8        29.95F
TAPPAHANNOCK*  CLOUDY    57  56  99 S6        29.94F
QUINTON*       CLOUDY    53  53 100 S7        29.95S
CHARLOTTSVILLE MOCLDY    54  52  93 S8        29.90F
GORDONSVILLE*  CLOUDY    56  54  95 SW8       29.91S
ORANGE*        CLOUDY    55  52  88 CALM      29.92F
LOUISA*        CLOUDY    59  57  94 SW5       29.91S
BUMPASS*       CLOUDY    55  55 100 S9        29.92S
FARMVILLE*     CLOUDY    55  55 100 CALM      29.93F FOG
CREWE*         CLOUDY    54  54 100 CALM      29.95S
FORT PICKETT*  CLOUDY    53  49  87 CALM      29.96S
CHASE CITY*    MOCLDY    52  50  95 CALM      29.96S
CLARKSVILLE*   CLOUDY    54  54 100 CALM      29.96R
SOUTH HILL*    CLOUDY    53  53 100 CALM      30.01S
LAWRENCEVILLE* CLOUDY    53  52  97 CALM      29.95S
EMPORIA*       LGT RAIN  52  52 100 CALM      29.97S VSB 1
$$

VAZ088>098-230400-
SOUTHEAST VIRGINIA

CITY           SKY/WX    TMP DP  RH WIND       PRES   REMARKS
NORFOLK        CLOUDY    58  50  75 CALM      29.96S
VIRGINIA BEACH CLOUDY    55  48  77 SE3       29.96S
NORFOLK NAVAL  CLOUDY    58  50  75 SE5       29.97F
WEST POINT*    CLOUDY    55  53  95 SE7       29.96F
SALUDA*        CLOUDY    55  55 100 S6        29.95S
NEWPORT NEWS   CLOUDY    54  53  97 CALM      29.96F
LANGLEY AFB    CLOUDY    56  53  89 SE3       29.95F
FORT EUSTIS    CLOUDY    55  52  92 CALM      29.94S
WILLIAMSBURG*  MOCLDY    55  55 100 CALM      29.97S
HR EXEC AP*    FAIR      54  48  82 CALM      29.95S
FRANKLIN*      DRIZZLE   53  52  96 CALM      29.96S
US460-WAKEFLD  CLOUDY    53  53 100 CALM      29.96S
$$

VAZ020-022-025-037-045-230400-
WEST CENTRAL AND SOUTHWEST VIRGINIA

CITY           SKY/WX    TMP DP  RH WIND       PRES   REMARKS
STAUNTON*      CLOUDY    54  49  86 SW5       29.93S
WAYNESBORO*    PTCLDY    54  50  87 SW3       29.92R
HOT SPRINGS VA CLOUDY    50  50 100 W12       29.95S
LYNCHBURG      CLOUDY   N/A N/A N/A MISG      29.94F
DANVILLE       FOG       53  53 100 CALM      29.95S VSB 3/4
SOUTH BOSTON*  CLOUDY    52  51  95 CALM      29.95F VSB 1/2
MARTINSVILLE   FOG       53  52  97 CALM      29.97S VSB 3/4
ROANOKE        FOG       52  52 100 CALM      29.95S VSB 1/2
BLACKSBURG     FOG       47  47 100 CALM      29.98S VSB 1/4
DUBLIN*        FOG       49  49 100 CALM      29.96S VSB 1/4
MARION*        FOG       51  50  96 CALM      29.97F VSB 1/4
HILLSVILLE*    CLOUDY    51  51 100 S7        29.95S
RICHLANDS*     FAIR      54  50  86 S3        29.93S
WISE*          CLEAR     52  52 100 CALM      29.95S
ABINGDON*      PTCLDY    52  52 100 E3        29.93S FOG
$$

MDZ021>025-VAZ099-100-230400-
SOUTHERN MARYLAND AND THE DELMARVA PENINSULA

CITY           SKY/WX    TMP DP  RH WIND       PRES   REMARKS
PATUXENT RIVER CLOUDY    49  49 100 CALM      29.93S
BAY BRIDGE APT CLOUDY    50  48  93 SE6       29.92S FOG
LEONARDTOWN    CLOUDY    54  52  94 CALM      29.94F
DOVER          CLOUDY    47  47 100 S5        29.92S
GEORGETOWN     CLOUDY    52  50  93 S6        29.94S
EASTON         CLOUDY    53  51  92 S6        29.96F
CAMBRIDGE      CLEAR     52  50  93 S7        29.94S
SALISBURY      CLOUDY    56  54  93 S7        29.94S
OCEAN CITY     CLOUDY    53  50  89 SW6       29.95S
WALLOPS ISLAND CLOUDY    54  54 100 S10       29.96S
ACCOMACK*      CLOUDY    56  55  93 S5        29.96S
$$

NCZ012>017-030>032-230400-
NORTH CENTRAL AND EASTERN NORTH CAROLINA

CITY           SKY/WX    TMP DP  RH WIND       PRES   REMARKS
ROANOKE RAPIDS FAIR      54  52  94 CALM      29.96S
RALEIGH        CLOUDY    59  53  80 N3        29.95S
ELIZABETH CITY CLOUDY    58  51  78 SE6       29.97S
AHOSKIE*         N/A     55  53  90 CALM      29.96S
EDENTON*       CLOUDY    61  54  76 S7        29.97S
CURRITUCK*     CLOUDY    59  50  72 CALM      29.97F
KILL DEVIL HLS NOT AVBL
MANTEO         CLOUDY    60  50  71 S7        29.98S
CAPE HATTERAS  CLOUDY    64  54  69 VRB3      29.97F
TARBORO*       NOT AVBL
GOLDSBORO      CLOUDY    62  55  77 SE3       29.94S
WASHINGTON     CLOUDY    58  52  78 SE6       29.96F
GREENVILLE     CLOUDY    61  54  77 S5        29.98R
NEW BERN       CLOUDY    54  52  93 CALM      29.97S
WILMINGTON     MOCLDY    59  54  83 E3        29.94F
$$

VAZ048-230400-
ELSEWHERE

CITY           SKY/WX    TMP DP  RH WIND       PRES   REMARKS
HARRISBURG PA  MOCLDY    46  41  82 E6        29.89S
BALTIMORE      CLOUDY    48  45  89 CALM      29.91S
ANNAPOLIS      CLOUDY    50  48  93 SE3       29.91F
ANDREWS AFB    PTCLDY    53  50  91 S7        29.90S
PHILADELPHIA   CLOUDY    46  42  86 CALM      29.92F
HENDERSON NC   CLOUDY    51  50  97 CALM      29.95F FOG
GREENSBORO     FOG       54  54 100 NE3       29.94S VSB 1/2
ROCKY MOUNT    CLOUDY    57  54  89 CALM      29.95S
$$

VAZ100-230400-
MARINE

STATION/POSITION TIME  TEMP    WIND        PRES    WAVE   SWELL
                       AIR SEA DIR/SP/G            HT/PER HT/PER
                 (UTC) (F)     (DEG/KT/KT) (MB)    (FT/S) (FT/S)
CAPE MAY NJ      0248   50 42  160/  4/  4 1013.4S
LEWES DE         0248   54 43  220/  4/  6 1013.5F
OCEAN-CITY-INLET 0248   47 44  220/ 10/ 11 1014.5F
WACHAPREAGUE VA  0218   52 52  210/  3/  4 1014.7R
THOMAS POINT MD  0300   47 43  190/  9/ 10   N/A
GOOSES REEF MD   0300   46 44  170/  8/ 10 1013.8    1
COVE POINT MD    0218   48     180/  5/  6 1014.1S
SOLOMONS ISLAND  0248   51 44  110/  5/  5   N/A
BISHOPS HEAD MD  0248   50 49  180/ 11/ 12 1014.0S
PINEY POINT MD   0248          150/  3/  3   N/A
POTOMAC MD       0250   48     190/  4/  6 1012.8S
CAMBRIDGE MD     0248   52 42  180/  5/  7 1012.8F
LEWISETTA VA     0248   56 44  220/  8/ 10 1013.3S
RAPPAHANNOCK LGT 0248          150/ 10/ 10 1014.9S
YORK RVR RNG VA  0218   50     170/  8/  9 1014.0R
YORKTOWN VA      0248   55 47  120/  1/  2 1014.2F
JAMESTOWN VA     0250   54     100/  4/  4   N/A
DOMINION TERM VA 0248   55      70/  6/  7 1014.4F
KIPTOPEKE VA     0248      47  150/  2/  2   N/A
CHES BAY BRIDGE  0248   56 47  130/  4/  5 1014.5F
CAPE HENRY VA    0248   56     140/  7/  9   N/A
WILLOUBY STN VA  0248   55     110/  5/  6 1015.3F
S CRANEY ISL VA  0248   56     120/  2/  3 1014.3F
CAPE HENRY BUOY  0242      49                N/A     3/ 9   2/11
OFFSHORE WE BUOY 0251      48                N/A     3/ 8   2/11
64NM E OF VA BCH 0250   58 54  170/  6/  6 1015.0F   3/ 9   3/ 9
DUCK PIER NC     0218   53 48  150/ 10/ 10 1014.4F
44100 DUCK FRF   0205      48                N/A     3/11   2/11
44056 DUCK FRF   0230      50                N/A     3/ 9   2/11
OREGON INLET NC  0242   55 54  120/  5/  6 1015.0F
HATTERAS NC      0248   61 60   CALM  /  3 1014.6F
DIAMOND SHLS NC  0250   68 74  160/ 12/ 16 1014.9F   3/ 9   3/ 9
CAPE LOOKOUT NC  0200   64     140/  8/  9 1014.6R
$$




USA.gov is the U.S. government's official web portal to all federal, state and local government web resources and services.